User: anonymous   Login
Location: Unspecified
(0.0000°N, 0.0000°E)
Time: 23:15:34
(UTC+00:00)
Language:

JUGNU - Orbit

View from above orbital plane
View from above orbital plane
View from above satellite
View from above satellite

Ground track
Ground track

The orbit data is extracted from the following two-line orbital elements,

1 37839U 11058B   18051.23772522  .00000306  00000-0  21477-4 0  9994
2 37839  19.9626  26.4053 0019072  38.3278  81.8454 14.12609620328818
Epoch (UTC): 20 February 2018 05:42:19
Eccentricity: 0.0019072
inclination: 19.9626°
perigee height: 836 km
apogee height: 864 km
right ascension of ascending node: 26.4053°
argument of perigee: 38.3278°
revolutions per day: 14.12609620
mean anomaly at epoch: 81.8454°
orbit number at epoch: 32881

The dashed part of the orbit path shows where the satellite is in the earth's shadow,  

DLR